Location: Alafon
(8.4500°N, 4.2333°E)
Time: 23:22:11
(UTC+00:00)

Explorer 7 - Pass Details

Date: 27 July 2021
Orbit: 484 x 676 km, 50.3° (Epoch: 18 September)

Event Time Altitude Azimuth Distance (km) Brightness Sun altitude
Rises 04:45:56 0° 244° (WSW) 2,534 - -12.0°
Reaches altitude 10° 04:48:32 10° 263° (W) 1,653 - -11.4°
Exits shadow 04:49:25 14° 274° (W) 1,421 8.4 -11.2°
Maximum altitude 04:51:16 19° 310° (NW) 1,191 8.3 -10.8°
Drops below altitude 10° 04:54:02 10° 358° (N) 1,670 9.5 -10.2°
Sets 04:56:41 0° 16° (NNE) 2,572 10.8 -9.5°
